GFSFLT1_850_dewp_000.txt.gz
Dewpoint
-0 0 1 3 3 4 4 8 4 4 5 5 4 3 2 2 2 2 2 2 3 -0 0 -0 1 2 2 2 3 3 -0 -1
4 5 4 3 4 4 4 8 4 4 5 3 2 1 1 1 2 2 1 0 0 0 0 1 1 0 -0 -0 -2 -2 -1 0
3 4 4 5 6 6 7 6 4 1 1 2 1 1 0 0 1 0 0 1 1 2 -1 -2 -1 -1 -2 -1 0 -0 -2 -3
2 4 5 5 5 4 3 3 2 1 1 1 1 0 -0 -0 -0 0 1 1 1 -1 -2 -2 -2 -2 -3 -8 -5 -3 -1 -1
0 3 4 4 3 3 2 2 1 -1 -2 -2 -1 0 1 2 2 2 0 0 -1 -2 -3 -3 -3 -3 -4 -2 -1 -3 -3 -1
1 2 3 4 4 3 2 2 1 0 0 1 2 3 3 0 -1 -1 -1 -2 -2 -3 -4 -4 -4 -5 -5 -2 -1 -2 -1 0
1 2 3 4 4 3 2 -0 1 0 2 2 2 -1 -2 -1 -1 -1 -2 -2 -4 -5 -4 -5 -4 -2 -2 -2 -1 -0 -0 -0
1 1 2 3 2 2 3 3 2 1 0 0 -0 -0 -0 -1 -1 -2 -2 -6 -3 -4 -4 -4 -2 -2 -2 -2 -2 -2 -1 -2
1 1 2 2 2 2 3 3 2 1 1 1 0 -0 -1 -1 -2 -2 -5 -3 -4 -4 -3 -3 -3 -3 -3 -3 -4 -3 -3 -3
0 1 1 2 2 1 2 2 3 2 2 1 -0 -1 -1 -1 -2 -4 -4 -3 -3 -3 -3 -3 -3 -3 -3 -3 -3 -3 -3 -3
1 1 1 1 1 2 2 2 3 3 1 -0 -1 -1 -1 -2 -3 -4 -3 -3 -3 -4 -2 -3 -2 -2 -2 -2 -3 -3 -4 -4
0 1 1 1 2 2 2 2 2 2 1 1 -0 -2 -3 -3 -4 -3 -2 -3 -6 -5 -5 -7 -6 -4 -6 -6 -7 -8 -7 -7
1 2 2 1 1 1 2 2 2 2 1 0 -1 -3 -3 -3 -3 -2 -4 -5 -4 -4 -5 -5 -6 -7 -7 -7 -8 -8 -7 -6
1 2 2 1 0 0 0 1 1 0 0 0 -1 -3 -4 -4 -4 -5 -5 -6 -7 -7 -9 -11 -11 -12 -11 -11 -11 -9 -8 -8
2 2 1 -0 -1 -2 -2 -2 -2 -1 0 -1 -2 -2 -4 -5 -6 -7 -7 -8 -10 -11 -12 -12 -12 -11 -11 -11 -11 -11 -12 -12
2 1 0 -1 -3 -3 -4 -5 -4 -2 -1 -1 -3 -3 -4 -6 -6 -7 -8 -11 -12 -13 -13 -12 -12 -11 -11 -11 -11 -10 -10 -11
0 -0 -2 -3 -5 -7 -8 -8 -7 -4 -2 -3 -3 -2 -4 -5 -5 -7 -9 -12 -13 -13 -12 -12 -11 -10 -9 -10 -10 -9 -10 -10
-1 -3 -4 -6 -8 -10 -10 -10 -10 -7 -6 -6 -4 -2 -3 -4 -5 -6 -9 -11 -13 -12 -12 -11 -11 -9 -9 -9 -9 -9 -11 -13
-3 -6 -7 -8 -9 -10 -11 -11 -10 -10 -9 -7 -3 -3 -5 -4 -5 -5 -8 -12 -13 -12 -11 -10 -10 -9 -9 -10 -11 -11 -12 -14

GFSFLT1_850_dewp_003.txt.gz
Dewpoint
4 3 3 3 3 4 8 8 6 5 4 6 5 4 3 3 2 1 1 1 -1 -1 -1 1 1 0 -0 0 0 0 -1 -2
4 4 4 3 4 7 7 5 4 4 5 5 4 3 1 1 -0 -1 -2 -1 -1 -0 -0 0 -1 -1 -1 -1 -1 -2 -1 -3
5 5 6 6 6 6 6 5 4 4 4 3 2 1 -1 -3 -3 -1 -0 1 1 1 1 -1 -1 -2 -2 -1 -3 -4 -5 -4
3 5 4 3 3 4 4 4 3 2 1 -0 -2 -3 -1 -0 0 1 1 -1 -2 -0 -1 -2 -3 -3 -3 -3 -3 -5 -6 -5
3 2 2 3 3 3 2 2 0 -1 -2 -1 -1 1 1 2 2 0 -2 -2 -2 -1 -2 -4 -5 -4 -4 -4 -6 -7 -4 -3
2 2 2 2 1 0 -1 -1 0 0 -0 -0 -0 1 -2 -3 -2 -1 -1 -1 -1 -2 -5 -7 -8 -7 -8 -7 -5 -3 -2 -1
1 2 3 2 1 1 1 2 1 1 -0 -1 -1 -1 -2 -2 -2 -2 -2 -2 -3 -7 -8 -6 -4 -4 -3 -3 -3 -3 -2 -3
2 3 2 2 2 2 2 2 2 1 0 -0 -1 -1 -1 -1 -2 -2 -3 -6 -7 -5 -6 -4 -4 -3 -3 -3 -3 -4 -4 -3
1 1 1 2 2 2 2 2 1 1 1 0 -0 -1 -1 -2 -1 1 -4 -5 -3 -3 -4 -3 -4 -3 -2 -2 -3 -3 -3 -3
1 2 3 2 2 2 2 2 2 2 1 1 -1 -2 -1 2 0 -3 -3 -2 -3 -3 -2 -4 -2 -2 -4 -4 -4 -6 -7 -6
2 2 1 1 1 1 2 2 2 2 2 1 1 1 1 0 -2 -3 -2 -2 -2 -6 -10 -8 -8 -8 -7 -8 -9 -10 -11 -10
1 1 1 1 1 1 1 0 1 1 1 -0 -2 -1 -2 -3 -3 -3 -3 -3 -5 -10 -8 -7 -8 -10 -11 -12 -11 -11 -10 -9
1 2 2 1 1 0 -1 -1 -1 -2 -3 -3 -1 -0 -2 -3 -4 -3 -4 -8 -8 -8 -8 -10 -12 -13 -13 -12 -11 -11 -10 -8
2 2 0 0 -0 -1 -2 -3 -5 -6 -6 -2 -0 -0 -0 -1 -2 -4 -6 -7 -7 -9 -11 -13 -14 -13 -12 -12 -12 -11 -11 -11
1 0 0 -1 -3 -5 -6 -8 -10 -9 -10 -3 -4 -4 -1 -2 -4 -4 -5 -6 -9 -12 -13 -14 -15 -13 -12 -12 -11 -11 -10 -11
0 -1 -2 -4 -7 -8 -9 -10 -11 -12 -12 -10 -6 -3 -2 -3 -2 -4 -4 -6 -12 -14 -13 -15 -13 -12 -12 -11 -10 -10 -10 -10
-1 -2 -4 -7 -7 -8 -10 -11 -12 -11 -12 -11 -9 -7 -4 -2 -2 -2 -6 -9 -12 -12 -14 -14 -12 -11 -10 -10 -9 -9 -9 -12
-4 -4 -8 -8 -10 -11 -11 -11 -12 -13 -12 -11 -6 -4 -4 -5 -5 -3 -7 -7 -10 -12 -14 -12 -11 -10 -10 -8 -9 -11 -11 -11
-6 -8 -9 -11 -12 -12 -12 -12 -12 -12 -11 -9 -7 -6 -6 -5 -5 -4 -6 -8 -11 -13 -12 -11 -11 -9 -10 -12 -11 -10 -10 -10

GFSFLT1_850_dewp_009.txt.gz
Dewpoint
5 6 5 5 4 8 8 9 9 9 7 7 7 5 5 5 3 1 0 -1 -2 -1 -0 0 -2 -0 0 -0 -1 -2 -2 -3
5 5 5 4 5 7 8 9 8 7 8 7 6 7 2 0 -1 -1 -1 -0 1 0 -2 -3 -2 -1 -2 -3 -3 -4 -5 -5
7 6 5 8 8 8 7 7 8 6 6 6 5 3 -0 -1 -0 1 1 -1 -2 -2 -3 -2 -1 -2 -4 -6 -8 -9 -11 -12
6 6 7 7 6 5 3 4 5 5 6 3 -1 -1 -1 -1 -0 -2 -2 -2 -2 -2 -2 -2 -3 -4 -6 -8 -10 -11 -11 -11
3 3 3 2 1 0 -1 -1 -1 -1 -1 -1 -1 -1 -1 -1 -1 -1 -2 -1 -1 -1 -3 -2 -2 -6 -9 -10 -12 -14 -9 -7
1 1 1 1 0 1 1 1 1 2 2 1 1 0 0 -0 -1 -1 -1 -1 -2 -2 -1 -0 -3 -7 -7 -6 -5 -13 -6 -3
2 2 2 1 1 2 2 2 2 2 2 2 1 1 0 -1 -1 -0 -1 0 0 -0 -1 -4 -4 -6 -5 -4 -8 -9 -6 -6
2 2 2 2 2 2 2 2 2 2 2 2 2 1 -0 -1 -1 -2 -3 -4 -3 -4 -4 -3 -3 -3 -11 -12 -10 -11 -11 -11
2 2 2 2 2 2 2 2 2 2 2 0 -0 -1 -4 -5 -3 -2 -2 -4 -3 -2 -2 -4 -8 -13 -16 -17 -16 -14 -14 -15
2 2 2 2 2 1 1 0 -1 -2 -3 -4 -5 -7 -6 -2 -1 -1 -2 -3 -2 -2 -4 -3 -4 -9 -15 -17 -15 -13 -13 -13
2 1 1 1 1 -0 -3 -4 -4 -4 -6 -7 -10 -8 -3 -3 -1 -2 -2 -2 -2 -1 -1 -3 -7 -7 -15 -16 -14 -13 -14 -13
1 1 1 0 -1 -3 -4 -5 -6 -7 -9 -10 -12 -12 -13 -13 -14 -10 -2 -2 -2 -2 -3 -6 -5 -11 -14 -15 -16 -14 -13 -12
1 0 -1 -2 -4 -5 -5 -6 -6 -7 -8 -11 -12 -13 -15 -19 -15 -6 -2 -2 -1 -2 -4 -4 -11 -13 -14 -15 -14 -13 -12 -11
-0 -2 -4 -4 -6 -6 -6 -7 -8 -9 -11 -12 -13 -14 -16 -17 -19 -10 -5 -6 -6 -3 -4 -7 -12 -14 -14 -13 -13 -12 -11 -10
-3 -4 -4 -5 -5 -7 -8 -8 -10 -12 -13 -13 -12 -14 -14 -13 -13 -10 -6 -5 -3 -6 -7 -11 -14 -12 -14 -13 -11 -10 -9 -9
-4 -3 -5 -6 -7 -8 -9 -11 -12 -12 -12 -11 -13 -12 -12 -11 -11 -11 -7 -3 -3 -5 -8 -12 -8 -13 -13 -11 -10 -9 -10 -12
-6 -5 -5 -7 -8 -10 -11 -12 -12 -11 -11 -11 -11 -11 -11 -10 -10 -7 -6 -3 -3 -8 -7 -8 -12 -13 -11 -10 -10 -11 -12 -10
-6 -6 -8 -9 -10 -11 -12 -12 -11 -11 -10 -10 -10 -10 -9 -9 -10 -8 -4 -4 -4 -5 -7 -10 -12 -11 -11 -10 -11 -12 -12 -12
-7 -8 -9 -10 -11 -12 -12 -11 -10 -10 -9 -10 -10 -8 -8 -8 -8 -6 -6 -6 -6 -6 -11 -12 -11 -11 -10 -12 -13 -15 -17 -16

GFSFLT1_850_dewp_012.txt.gz
Dewpoint
6 6 6 5 4 6 8 8 8 9 8 8 8 6 5 5 5 3 1 -0 -0 0 1 -1 -3 -2 -3 -2 -2 -2 -4 -6
6 7 7 6 7 8 8 9 8 9 8 6 6 7 5 2 -0 -0 -0 0 -0 -2 -3 -2 -2 -2 -2 -3 -4 -6 -6 -7
7 9 10 10 10 9 8 7 7 7 6 7 3 -0 -1 -1 -2 -1 0 -1 -1 -1 -2 -2 -2 -3 -3 -3 -3 -7 -12 -16
9 9 8 6 4 4 3 3 4 3 1 -2 -1 -0 -1 -1 -1 -1 -1 -1 -1 -1 -1 -1 -2 -1 -1 -3 -6 -10 -10 -12
5 4 1 -0 -1 -1 -1 -1 0 1 0 0 1 1 1 0 -0 -1 -1 -1 -1 -1 -1 -2 -2 -1 -4 -7 -7 -8 -8 -12
0 0 0 -0 0 1 1 1 1 1 1 2 1 2 1 1 -0 -1 -1 -1 -3 -4 -7 -3 -3 -3 -4 -5 -5 -6 -11 -11
1 1 1 1 1 2 2 2 2 2 2 2 2 1 1 -0 -1 -2 -1 -3 -4 -6 -4 -3 -3 -3 -8 -10 -13 -15 -16 -14
2 2 2 2 2 2 2 2 2 2 2 2 1 -0 -3 -5 -5 -3 -1 -2 -4 -4 -3 -1 -2 -6 -7 -9 -10 -13 -17 -16
3 3 2 2 2 2 2 2 2 1 -1 -2 -4 -6 -7 -7 -8 -10 -8 -6 -4 -2 -3 -2 -3 -4 -3 -7 -13 -17 -15 -14
3 2 2 2 2 1 0 -1 -3 -4 -7 -10 -10 -12 -12 -12 -13 -14 -15 -15 -7 -3 -2 -2 -2 -2 -4 -9 -15 -15 -13 -14
2 2 1 1 1 -0 -2 -3 -5 -6 -8 -8 -9 -12 -13 -14 -16 -18 -22 -21 -3 -2 -3 -2 -2 -3 -6 -12 -14 -16 -14 -13
1 1 1 1 0 0 1 -5 -5 -6 -9 -10 -12 -13 -14 -17 -19 -20 -20 -12 -3 -3 -3 -3 -4 -4 -11 -13 -14 -14 -13 -12
1 1 1 -0 -1 -5 -5 -6 -7 -9 -10 -12 -12 -12 -14 -16 -19 -19 -18 -14 -4 -4 -5 -6 -4 -4 -12 -14 -14 -13 -12 -12
1 0 -1 -4 -5 -5 -6 -5 -8 -10 -12 -12 -11 -12 -13 -15 -16 -17 -16 -13 -5 -5 -5 -3 -4 -10 -14 -10 -13 -13 -11 -11
0 -2 -4 -5 -6 -2 -3 -8 -10 -11 -12 -11 -11 -11 -12 -14 -15 -13 -12 -8 -5 -4 -3 -6 -7 -13 -11 -12 -13 -11 -11 -10
-2 -4 -4 -5 -2 -4 -8 -9 -11 -12 -11 -11 -10 -11 -12 -14 -11 -10 -11 -7 -6 -4 -4 -7 -11 -10 -11 -12 -11 -11 -10 -11
-3 -4 -4 -5 -6 -8 -9 -11 -12 -11 -11 -10 -10 -10 -13 -11 -9 -9 -8 -5 -4 -6 -5 -5 -7 -10 -11 -11 -11 -11 -11 -13
-4 -6 -7 -8 -8 -9 -11 -12 -11 -11 -10 -9 -9 -11 -9 -10 -9 -8 -8 -6 -6 -6 -5 -6 -8 -11 -10 -10 -11 -11 -15 -18
-6 -7 -7 -8 -9 -11 -12 -11 -10 -10 -10 -9 -11 -9 -7 -9 -9 -9 -8 -7 -7 -6 -7 -11 -11 -9 -9 -10 -11 -15 -19 -17